Regional Weather Roundup
Issued by NWS

Home | Current Version | Previous Version | Graphics & Text | Print | Product List | Glossary On
Versions: 1 2 3 4 5 6 7 8 9 10 11 12 13 14 15 16 17 18 19 20 21 22 23 24 25 26 27 28 29 30 31 32 33 34 35 36 37 38 39 40 41 42 43 44 45 46 47 48 49 50
424
ASUS43 KLMK 270710
RWRKY
KENTUCKY REGIONAL WEATHER ROUNDUP
NATIONAL WEATHER SERVICE LOUISVILLE KY
300 AM EDT MON MAR 27 2017

NOTE "FAIR" INDICATES FEW OR NO CLOUDS BELOW 12,000 FEET
WITH NO SIGNIFICANT WEATHER AND/OR OBSTRUCTIONS TO VISIBILITY.

KYZ001>023-026-027-061>063-070>075-270800-
WESTERN AND SOUTH CENTRAL KENTUCKY

CITY           SKY/WX    TMP DP  RH WIND       PRES   REMARKS
PADUCAH        CLOUDY    54  49  83 E3        29.94S
HENDERSON      CLOUDY    48  43  81 CALM      29.95F
OWENSBORO      CLOUDY    50  48  93 CALM      29.98S
HOPKINSVILLE   PTCLDY    53  50  89 CALM      29.96F
BOWLING GREEN  CLEAR     52  49  89 CALM      29.98F
GLASGOW        PTCLDY    52  52 100 CALM      29.99S
$$

KYZ024-025-028>034-038-045-046-053-270800-
NORTH CENTRAL KENTUCKY

CITY           SKY/WX    TMP DP  RH WIND       PRES   REMARKS
LOUISVILLE/SDF PTCLDY    54  48  80 CALM      29.97F
LOUISVILLE/LOU PTCLDY    53  48  83 CALM      29.98F
FORT KNOX      PTCLDY    52  49  92 CALM      29.96F
$$

KYZ035>037-039>044-047>052-055>060-089>105-270800-
NORTHEAST KENTUCKY

CITY           SKY/WX    TMP DP  RH WIND       PRES   REMARKS
LEXINGTON      CLOUDY    55  52  89 CALM      29.99S
COVINGTON      PTCLDY    49  49 100 SW6       29.96S
FRANKFORT      MOCLDY    53  49  86 CALM      29.98R
$$

KYZ054-064>069-076>088-106>120-270800-
SOUTHEAST KENTUCKY

CITY           SKY/WX    TMP DP  RH WIND       PRES   REMARKS
JACKSON        CLEAR     58  54  86 SW3       30.00F
LONDON         CLEAR     58  51  78 SW3       30.01S
SOMERSET       CLOUDY    55  50  82 CALM      30.01S
MIDDLESBORO    PTCLDY    50  50 100 CALM      30.02F
MONTICELLO     MOSUNNY   53  49  86 W9        30.01S
$$





USA.gov is the U.S. government's official web portal to all federal, state and local government web resources and services.